Leeds And Bradford, United Kingdom

12:39 PM BST on June 23, 2017 (GMT +0100)
Leeds Bradford

Weather History for EGNM - February, 2014

Change the Weather History Date:

Friday, February 7, 2014

  Actual Average Record
Temperature  
Mean Temperature 38 °F -  
Max Temperature 41 °F 43 °F 55 °F (2008)
Min Temperature 34 °F 33 °F 23 °F (2012)
Degree Days  
Heating Degree Days 28    
Moisture  
Dew Point 35 °F    
Average Humidity 87    
Maximum Humidity 100    
Minimum Humidity 63    
Precipitation  
Precipitation 0.02 in - - ()
Sea Level Pressure  
Sea Level Pressure 29.09 in    
Wind  
Wind Speed 11 mph ()    
Max Wind Speed 29 mph    
Max Gust Speed -    
Visibility 6.2 miles    
Events Rain    
Averages and records for this station are not official NWS values.
T = Trace of Precipitation, MM = Missing Value Source: Averaged Metar Reports

Daily Weather History Graph

Daily Weather History Graph

Search for Another Location

Airport or City:

Trip Planner

Search our weather history database for the weather conditions in past years. The results will help you decide how hot, cold, wet, or windy it might be!

Date:

Astronomy

Feb. 07, 2014 Rise Set
Actual Time 7:42 AM GMT 4:59 PM GMT
Civil Twilight 7:04 AM GMT 5:37 PM GMT
Nautical Twilight 6:22 AM GMT 6:19 PM GMT
Astronomical Twilight 5:42 AM GMT 7:00 PM GMT
Moon 10:52 AM GMT (2/7) 1:50 AM GMT (2/7)
Length of Visible Light 10h 32m
Length of Day
9h 17m
First Quarter, 57% of the Moon is Illuminated
Feb 7
First Quarter
Feb 14
Full
Feb 22
Last Quarter
Mar 1
New
Mar 8
First Quarter

Hourly Weather History & Observations

Time (GMT) Temp. Windchill Dew Point Humidity Pressure Visibility Wind Dir Wind Speed Gust Speed Precip Events Conditions
12:00 AM 35 °F - 35 °F 99%  in - North 8.1 mph - -  
12:20 AM 35.6 °F 30.7 °F 35.6 °F 100% 28.97 in 6.2 mi North 5.8 mph - N/A Rain Light Rain
12:50 AM 35.6 °F 29.2 °F 35.6 °F 100% 28.97 in 6.2 mi NNW 8.1 mph - N/A Rain Light Rain
1:00 AM 35 °F - 35 °F 97%  in - NNW 9.2 mph - -  
1:20 AM 35.6 °F 28.6 °F 35.6 °F 100% 28.94 in 6.2 mi North 9.2 mph - N/A   Mostly Cloudy
1:50 AM 35.6 °F 28.0 °F 35.6 °F 100% 28.97 in 6.2 mi North 10.4 mph - N/A   Mostly Cloudy
2:00 AM 35 °F - 35 °F 98%  in - NNW 11.5 mph - -  
2:20 AM 35.6 °F 28.0 °F 35.6 °F 100% 28.94 in 6.2 mi NNW 10.4 mph - N/A   Mostly Cloudy
2:50 AM 37.4 °F 29.8 °F 35.6 °F 93% 28.94 in 6.2 mi NNW 11.5 mph - N/A   Mostly Cloudy
3:00 AM 35 °F - 35 °F 100%  in - NW 8.1 mph - -  
3:20 AM 37.4 °F 31.4 °F 35.6 °F 93% 28.97 in 6.2 mi NNW 8.1 mph - N/A   Mostly Cloudy
3:50 AM 37.4 °F 31.4 °F 35.6 °F 93% 28.97 in 6.2 mi NW 8.1 mph - N/A   Mostly Cloudy
4:00 AM 36 °F - 36 °F 98%  in - NNW 12.7 mph - -  
4:20 AM 37.4 °F 30.8 °F 35.6 °F 93% 28.97 in 6.2 mi NW 9.2 mph - N/A   Mostly Cloudy
4:50 AM 37.4 °F 30.3 °F 35.6 °F 93% 29.00 in 6.2 mi WNW 10.4 mph - N/A   Mostly Cloudy
5:00 AM 36 °F - 36 °F 99%  in - NW 11.5 mph - -  
5:20 AM 37.4 °F 29.3 °F 35.6 °F 93% 29.00 in 6.2 mi WNW 12.7 mph - N/A   Scattered Clouds
5:50 AM 37.4 °F 30.3 °F 35.6 °F 93% 29.00 in 6.2 mi WNW 10.4 mph - N/A   Scattered Clouds
6:00 AM 36 °F - 36 °F 99%  in - WNW 10.4 mph - -  
6:20 AM 37.4 °F 28.9 °F 35.6 °F 93% 29.03 in 6.2 mi WNW 13.8 mph - N/A   Scattered Clouds
6:50 AM 37.4 °F 29.3 °F 35.6 °F 93% 29.03 in 6.2 mi WNW 12.7 mph - N/A   Scattered Clouds
7:00 AM 37 °F - 36 °F 96%  in - WNW 11.5 mph - -  
7:20 AM 37.4 °F 30.3 °F 35.6 °F 93% 29.06 in 6.2 mi West 10.4 mph - N/A   Scattered Clouds
7:50 AM 37.4 °F 30.3 °F 35.6 °F 93% 29.06 in 6.2 mi West 10.4 mph - N/A   Scattered Clouds
8:00 AM 37 °F - 36 °F 96%  in - West 11.5 mph - -  
8:20 AM 37.4 °F 29.8 °F 35.6 °F 93% 29.09 in 6.2 mi WNW 11.5 mph - N/A   Partly Cloudy
8:50 AM 37.4 °F 29.8 °F 37.4 °F 100% 29.09 in 6.2 mi West 11.5 mph - N/A   Partly Cloudy
9:00 AM 37 °F - 36 °F 95%  in - West 16.1 mph - -  
9:20 AM 37.4 °F 28.9 °F 35.6 °F 93% 29.12 in 6.2 mi West 13.8 mph - N/A   Partly Cloudy
9:50 AM 39.2 °F 32.5 °F 35.6 °F 87% 29.12 in 6.2 mi West 10.4 mph - N/A   Partly Cloudy
10:00 AM 38 °F - 36 °F 91%  in - West 18.4 mph - -  
10:20 AM 39.2 °F 31.6 °F 37.4 °F 93% 29.15 in 6.2 mi West 12.7 mph - N/A   Scattered Clouds
10:50 AM 39.2 °F 30.5 °F 37.4 °F 93% 29.15 in 6.2 mi West 16.1 mph - N/A Rain Light Rain
11:00 AM 40 °F - 37 °F 87%  in - West 20.7 mph - -  
11:20 AM 39.2 °F 31.6 °F 37.4 °F 93% 29.18 in 6.2 mi West 12.7 mph - N/A Rain Light Rain
11:50 AM 41.0 °F 32.8 °F 39.2 °F 93% 29.15 in 6.2 mi West 16.1 mph - N/A   Scattered Clouds
12:00 PM 41 °F - 37 °F 79%  in - West 21.9 mph - -  
12:20 PM 41.0 °F 32.2 °F 37.4 °F 87% 29.18 in 6.2 mi West 18.4 mph - N/A   Scattered Clouds
12:50 PM 42.8 °F 33.8 °F 37.4 °F 81% 29.18 in 6.2 mi West 21.9 mph - N/A   Scattered Clouds
1:00 PM 41 °F - 36 °F 77%  in - West 21.9 mph - -  
1:20 PM 42.8 °F 34.8 °F 37.4 °F 81% 29.18 in 6.2 mi West 17.3 mph - N/A   Scattered Clouds
1:50 PM 42.8 °F 34.8 °F 37.4 °F 81% 29.21 in 6.2 mi West 17.3 mph - N/A   Scattered Clouds
2:00 PM 39 °F - 36 °F 85%  in - West 23.0 mph - -  
2:20 PM 41.0 °F 32.8 °F 35.6 °F 81% 29.21 in 6.2 mi West 16.1 mph - N/A   Scattered Clouds
2:50 PM 42.8 °F 35.8 °F 37.4 °F 81% 29.21 in 6.2 mi WSW 13.8 mph - N/A   Scattered Clouds
3:00 PM 42 °F - 34 °F 66%  in - West 21.9 mph - -  
3:20 PM 42.8 °F 34.3 °F 33.8 °F 70% 29.24 in 6.2 mi WSW 19.6 mph - N/A   Partly Cloudy
3:50 PM 41.0 °F 31.9 °F 33.8 °F 76% 29.24 in 6.2 mi WSW 19.6 mph - N/A   Partly Cloudy
4:00 PM 39 °F - 34 °F 75%  in - WSW 15.0 mph - -  
4:20 PM 41.0 °F 33.5 °F 33.8 °F 76% 29.24 in 6.2 mi WSW 13.8 mph - N/A   Partly Cloudy
4:50 PM 39.2 °F 32.5 °F 33.8 °F 81% 29.21 in 6.2 mi WSW 10.4 mph - N/A   Partly Cloudy
5:00 PM 39 °F - 31 °F 65%  in - SW 15.0 mph - -  
5:20 PM 37.4 °F 30.8 °F 33.8 °F 87% 29.21 in 6.2 mi WSW 9.2 mph - N/A   Partly Cloudy
5:50 PM 39.2 °F 33.0 °F 32.0 °F 75% 29.21 in - WSW 9.2 mph - N/A   Clear
6:00 PM 39 °F - 31 °F 63%  in - SW 19.6 mph - -  
6:20 PM 37.4 °F 32.8 °F 32.0 °F 81% 29.21 in - South 5.8 mph - N/A   Clear
6:50 PM 39.2 °F 33.0 °F 32.0 °F 75% 29.18 in - SSE 9.2 mph - N/A   Clear
7:00 PM 38 °F - 32 °F 70%  in - South 13.8 mph - -  
7:20 PM 37.4 °F 32.8 °F 32.0 °F 81% 29.18 in - SSE 5.8 mph - N/A   Clear
7:50 PM 37.4 °F 30.8 °F 32.0 °F 81% 29.18 in - SSE 9.2 mph - N/A   Clear
8:00 PM 38 °F - 31 °F 69%  in - South 19.6 mph - -  
8:20 PM 39.2 °F 32.5 °F 32.0 °F 75% 29.15 in 6.2 mi SSE 10.4 mph - N/A   Scattered Clouds
8:50 PM 37.4 °F 30.8 °F 32.0 °F 81% 29.12 in 6.2 mi SSE 9.2 mph - N/A   Scattered Clouds
9:00 PM 39 °F - 34 °F 76%  in - South 23.0 mph - -  
9:20 PM 39.2 °F 33.0 °F 33.8 °F 81% 29.09 in 6.2 mi SSE 9.2 mph - N/A   Scattered Clouds
9:50 PM 39.2 °F 33.0 °F 33.8 °F 81% 29.06 in 6.2 mi SSE 9.2 mph - N/A   Scattered Clouds
10:00 PM 39 °F - 35 °F 81%  in - SSE 24.2 mph - -  
10:20 PM 39.2 °F 31.6 °F 35.6 °F 87% 29.03 in 6.2 mi SSE 12.7 mph - N/A Rain Light Rain
10:50 PM 39.2 °F 30.8 °F 37.4 °F 93% 29.00 in 6.2 mi SE 15.0 mph - N/A Rain Light Rain
11:00 PM 39 °F - 36 °F 87%  in - SSE 28.8 mph - -  
11:20 PM 39.2 °F 30.5 °F 37.4 °F 93% 28.94 in 6.2 mi SE 16.1 mph - N/A Rain Light Rain
11:50 PM 39.2 °F 29.8 °F 37.4 °F 93% 28.91 in 6.2 mi SE 18.4 mph - N/A Rain Light Rain